Tracking 19149 objects as of 21-Apr-2018
HD Live streaming from Space Station
objects crossing your sky now

FENGYUN 1C DEB

Track FENGYUN 1C DEB now!
10-day predictions


NORAD ID: 31205
Int'l Code: 1999-025BKK
Perigee: 705.8 km
Apogee: 942.4 km
Inclination: 99.2 °
Period: 101.2 minutes
Semi major axis: 7195 km
RCS: 0.0159 m2 (small)
Launch date: May 10, 1999
Source: People's Republic of China (PRC)
Launch site: Taiyaun Space Center, China (TSC)

Note: This is SATELLITE DEBRIS
aabbcc
Your satellite tracking list
Your tracking list is empty




NASA's NSSDC Master Catalog

Two Line Element Set (TLE):
1 31205U 99025BKK 18110.55511753 +.00000024 +00000-0 +29366-4 0  9995
2 31205 099.2329 016.0579 0164433 226.6735 257.7264 14.22480687574884
Source of the keplerian elements: AFSPC